RUK63R EGPH-EGBB

Flight info

Callsign RUK63R
Flight time 0h 35m
Altitude 27000
Route GOSAM P600 FENIK L612 NAVSO DCT AKOMU DCT VAMEB UL612 CROFT
Aircraft B738/M-SDE2E3FGHIRWXY/LB1

Departure

Time 2026-04-26 14:12
Airport Edinburgh Airport (EGPH)

Arrival

Time 2026-04-26 14:47
Airport Birmingham Airport (EGBB)
Time Latitude Longitude Altitude Speed Heading
2026-04-26 13:45 55.94906 -3.36495 104 ft 0 kts 147°
2026-04-26 14:04 55.94907 -3.36496 105 ft 2 kts 147°
2026-04-26 14:04 55.94928 -3.36519 105 ft 4 kts 147°
2026-04-26 14:04 55.94946 -3.36549 104 ft 4 kts 111°
2026-04-26 14:04 55.94947 -3.36592 105 ft 4 kts 64°
2026-04-26 14:05 55.94942 -3.36610 104 ft 1 kts 59°
2026-04-26 14:05 55.94942 -3.36611 103 ft 1 kts 59°
2026-04-26 14:06 55.94943 -3.36608 104 ft 1 kts 59°
2026-04-26 14:07 55.94952 -3.36579 104 ft 5 kts 59°
2026-04-26 14:07 55.94979 -3.36501 105 ft 10 kts 58°
2026-04-26 14:07 55.95020 -3.36401 106 ft 10 kts 35°
2026-04-26 14:07 55.95069 -3.36450 107 ft 10 kts 265°
2026-04-26 14:08 55.95040 -3.36561 106 ft 10 kts 237°
2026-04-26 14:08 55.95004 -3.36664 105 ft 10 kts 239°
2026-04-26 14:08 55.94966 -3.36779 106 ft 12 kts 239°
2026-04-26 14:08 55.94914 -3.36926 103 ft 16 kts 238°
2026-04-26 14:09 55.94854 -3.37105 104 ft 17 kts 239°
2026-04-26 14:09 55.94793 -3.37286 105 ft 17 kts 239°
2026-04-26 14:09 55.94734 -3.37462 109 ft 16 kts 239°
2026-04-26 14:09 55.94677 -3.37629 112 ft 16 kts 238°
2026-04-26 14:10 55.94621 -3.37791 112 ft 15 kts 238°
2026-04-26 14:10 55.94593 -3.37941 111 ft 8 kts 302°
2026-04-26 14:10 55.94635 -3.37993 112 ft 7 kts 329°
2026-04-26 14:10 55.94678 -3.38040 113 ft 7 kts 326°
2026-04-26 14:11 55.94729 -3.38039 113 ft 0 kts 57°
2026-04-26 14:11 55.94752 -3.37978 114 ft 33 kts 57°
2026-04-26 14:11 55.95043 -3.37123 106 ft 126 kts 59°
2026-04-26 14:12 55.95634 -3.35382 283 ft 188 kts 59°
2026-04-26 14:12 55.96354 -3.33224 1028 ft 218 kts 53°
2026-04-26 14:12 55.97530 -3.31302 1863 ft 240 kts 36°
2026-04-26 14:12 55.98884 -3.29377 2798 ft 259 kts 39°
2026-04-26 14:13 56.02271 -3.27960 4626 ft 262 kts 334°
2026-04-26 14:13 56.03657 -3.29986 5477 ft 261 kts 300°
2026-04-26 14:13 56.04166 -3.33021 5877 ft 258 kts 266°
2026-04-26 14:14 56.03654 -3.36017 6003 ft 258 kts 242°
2026-04-26 14:14 56.02857 -3.38886 6004 ft 260 kts 247°
2026-04-26 14:14 56.02226 -3.41939 6191 ft 264 kts 251°
2026-04-26 14:14 56.01659 -3.45193 6583 ft 287 kts 253°
2026-04-26 14:15 56.01103 -3.48679 7306 ft 295 kts 254°
2026-04-26 14:15 56.00574 -3.52226 8252 ft 296 kts 254°
2026-04-26 14:15 56.00060 -3.55785 9233 ft 296 kts 254°
2026-04-26 14:15 55.99454 -3.60023 10316 ft 300 kts 254°
2026-04-26 14:16 55.98410 -3.67313 11862 ft 309 kts 254°
2026-04-26 14:16 55.97323 -3.74874 13404 ft 318 kts 255°
2026-04-26 14:16 55.96203 -3.82635 14872 ft 325 kts 255°
2026-04-26 14:16 55.95065 -3.90488 16365 ft 330 kts 255°
2026-04-26 14:17 55.94240 -3.96132 17377 ft 335 kts 254°
2026-04-26 14:17 55.93345 -3.99973 18086 ft 338 kts 239°
2026-04-26 14:17 55.91919 -4.03345 18773 ft 343 kts 228°
2026-04-26 14:17 55.89763 -4.06588 19497 ft 348 kts 218°
2026-04-26 14:18 55.85744 -4.11551 20716 ft 354 kts 217°
2026-04-26 14:18 55.81664 -4.16626 21911 ft 360 kts 218°
2026-04-26 14:18 55.78717 -4.20324 22752 ft 365 kts 218°
2026-04-26 14:18 55.75257 -4.24574 23680 ft 371 kts 214°
2026-04-26 14:19 55.72846 -4.26341 24132 ft 382 kts 194°
2026-04-26 14:19 55.70198 -4.26579 24630 ft 391 kts 178°
2026-04-26 14:19 55.67529 -4.25422 25095 ft 403 kts 160°
2026-04-26 14:19 55.63751 -4.21870 25820 ft 409 kts 155°
2026-04-26 14:20 55.61237 -4.19311 26251 ft 413 kts 155°
2026-04-26 14:20 55.58738 -4.16773 26730 ft 414 kts 155°
2026-04-26 14:20 55.56234 -4.14271 27244 ft 413 kts 156°
2026-04-26 14:20 55.53582 -4.11667 27236 ft 415 kts 156°
2026-04-26 14:21 55.49559 -4.07754 27257 ft 410 kts 156°
2026-04-26 14:21 55.44856 -4.03187 27256 ft 409 kts 156°
2026-04-26 14:21 55.39863 -3.98343 27276 ft 408 kts 156°
2026-04-26 14:21 55.34878 -3.93519 27266 ft 408 kts 156°
2026-04-26 14:22 55.29897 -3.88710 27267 ft 408 kts 156°
2026-04-26 14:22 55.24919 -3.83913 27263 ft 408 kts 156°
2026-04-26 14:22 55.21245 -3.80410 27270 ft 407 kts 157°
2026-04-26 14:22 55.16175 -3.75991 27277 ft 407 kts 159°
2026-04-26 14:23 55.11061 -3.71674 27276 ft 408 kts 159°
2026-04-26 14:23 55.05963 -3.67349 27266 ft 409 kts 159°
2026-04-26 14:23 55.00910 -3.63039 27280 ft 409 kts 159°
2026-04-26 14:23 54.95788 -3.58674 27290 ft 410 kts 159°
2026-04-26 14:24 54.90656 -3.54310 27277 ft 410 kts 158°
2026-04-26 14:24 54.85522 -3.49957 27283 ft 411 kts 159°
2026-04-26 14:24 54.80377 -3.45608 27279 ft 411 kts 159°
2026-04-26 14:24 54.75231 -3.41269 27280 ft 411 kts 159°
2026-04-26 14:25 54.70069 -3.36931 27268 ft 412 kts 159°
2026-04-26 14:25 54.64933 -3.32626 27275 ft 411 kts 159°
2026-04-26 14:25 54.60663 -3.29056 27283 ft 412 kts 159°
2026-04-26 14:25 54.58033 -3.26866 27294 ft 423 kts 159°
2026-04-26 14:26 54.54744 -3.24134 27302 ft 435 kts 158°
2026-04-26 14:26 54.49188 -3.19517 27273 ft 452 kts 158°
2026-04-26 14:26 54.43484 -3.14787 27262 ft 457 kts 158°
2026-04-26 14:26 54.37788 -3.10072 27264 ft 449 kts 158°
2026-04-26 14:27 54.32187 -3.05454 27263 ft 442 kts 158°
2026-04-26 14:27 54.23023 -2.97940 27293 ft 439 kts 158°
2026-04-26 14:27 54.16417 -2.92550 27285 ft 443 kts 159°
2026-04-26 14:27 54.10717 -2.88363 27285 ft 448 kts 161°
2026-04-26 14:28 54.03268 -2.83064 27275 ft 452 kts 161°
2026-04-26 14:28 53.97080 -2.78584 27245 ft 445 kts 161°
2026-04-26 14:28 53.90433 -2.73815 27252 ft 438 kts 161°
2026-04-26 14:28 53.79899 -2.66207 27302 ft 444 kts 161°
2026-04-26 14:29 53.75754 -2.63219 27279 ft 445 kts 161°
2026-04-26 14:29 53.71304 -2.60030 27242 ft 428 kts 161°
2026-04-26 14:29 53.67558 -2.57355 27225 ft 414 kts 161°
2026-04-26 14:29 53.64927 -2.55478 27247 ft 399 kts 161°
2026-04-26 14:30 53.62445 -2.53687 27226 ft 386 kts 159°
2026-04-26 14:30 53.59257 -2.50702 27127 ft 374 kts 152°
2026-04-26 14:30 53.50700 -2.41584 25999 ft 359 kts 152°
2026-04-26 14:30 53.46745 -2.37485 25327 ft 356 kts 153°
2026-04-26 14:31 53.44097 -2.34782 24865 ft 356 kts 153°
2026-04-26 14:31 53.39877 -2.30482 24254 ft 352 kts 153°
2026-04-26 14:31 53.36711 -2.27258 23754 ft 349 kts 152°
2026-04-26 14:31 53.34632 -2.25170 23399 ft 346 kts 154°
2026-04-26 14:32 53.32544 -2.23208 23054 ft 343 kts 155°
2026-04-26 14:32 53.30454 -2.21297 22665 ft 342 kts 155°
2026-04-26 14:32 53.29023 -2.19996 22000 ft 352 kts 155°
2026-04-26 14:32 53.26803 -2.17980 20793 ft 375 kts 154°
2026-04-26 14:33 53.24500 -2.15877 19985 ft 384 kts 154°
2026-04-26 14:33 53.22159 -2.13726 19554 ft 380 kts 153°
2026-04-26 14:33 53.19860 -2.11608 19232 ft 374 kts 153°
2026-04-26 14:33 53.17593 -2.09520 18830 ft 371 kts 153°
2026-04-26 14:34 53.15342 -2.07451 18361 ft 369 kts 153°
2026-04-26 14:34 53.11727 -2.04135 17572 ft 366 kts 153°
2026-04-26 14:34 53.07968 -2.00695 16660 ft 365 kts 153°
2026-04-26 14:34 53.05749 -1.98669 16229 ft 363 kts 153°
2026-04-26 14:35 53.03438 -1.97126 15771 ft 356 kts 172°
2026-04-26 14:35 53.00989 -1.96745 15366 ft 352 kts 178°
2026-04-26 14:35 52.96731 -1.96266 14588 ft 349 kts 178°
2026-04-26 14:35 52.90356 -1.95489 13428 ft 344 kts 177°
2026-04-26 14:36 52.85633 -1.94876 12667 ft 336 kts 177°
2026-04-26 14:36 52.82783 -1.94504 12262 ft 331 kts 177°
2026-04-26 14:36 52.80490 -1.94205 11938 ft 327 kts 177°
2026-04-26 14:36 52.78231 -1.93910 11621 ft 323 kts 177°
2026-04-26 14:37 52.75998 -1.93620 11317 ft 319 kts 177°
2026-04-26 14:37 52.73798 -1.93334 11008 ft 315 kts 177°
2026-04-26 14:37 52.71620 -1.93052 10712 ft 312 kts 177°
2026-04-26 14:37 52.66178 -1.92347 10078 ft 300 kts 177°
2026-04-26 14:38 52.58527 -1.92605 9651 ft 260 kts 217°
2026-04-26 14:38 52.56735 -1.97948 9491 ft 238 kts 265°
2026-04-26 14:38 52.57587 -2.03010 9285 ft 233 kts 306°
2026-04-26 14:38 52.60207 -2.05965 9270 ft 230 kts 345°
2026-04-26 14:39 52.66291 -2.06925 9152 ft 221 kts 353°
2026-04-26 14:39 52.71921 -2.04426 8088 ft 222 kts 62°
2026-04-26 14:39 52.71225 -1.95074 7076 ft 211 kts 137°
2026-04-26 14:39 52.65986 -1.92397 6161 ft 202 kts 176°
2026-04-26 14:40 52.62342 -1.91874 5560 ft 201 kts 176°
2026-04-26 14:40 52.60980 -1.91615 5452 ft 193 kts 165°
2026-04-26 14:40 52.59774 -1.90666 5246 ft 193 kts 152°
2026-04-26 14:40 52.57763 -1.88580 4869 ft 193 kts 149°
2026-04-26 14:41 52.56270 -1.86981 4528 ft 193 kts 149°
2026-04-26 14:41 52.55147 -1.85770 4303 ft 193 kts 148°
2026-04-26 14:41 52.52551 -1.85997 3731 ft 187 kts 241°
2026-04-26 14:41 52.54799 -1.90549 3178 ft 183 kts 322°
2026-04-26 14:42 52.55559 -1.93987 3222 ft 182 kts 285°
2026-04-26 14:42 52.56396 -1.95668 3127 ft 206 kts 332°
2026-04-26 14:42 52.57802 -1.96199 3000 ft 210 kts 358°
2026-04-26 14:42 52.59164 -1.95605 2827 ft 202 kts 40°
2026-04-26 14:43 52.59864 -1.93770 2785 ft 184 kts 82°
2026-04-26 14:43 52.59645 -1.91909 2784 ft 160 kts 132°
2026-04-26 14:43 52.58876 -1.90562 2814 ft 164 kts 137°
2026-04-26 14:43 52.58042 -1.89302 2784 ft 160 kts 142°
2026-04-26 14:44 52.57212 -1.88124 2781 ft 155 kts 144°
2026-04-26 14:44 52.56331 -1.87027 2717 ft 164 kts 147°
2026-04-26 14:44 52.55375 -1.85932 2508 ft 169 kts 148°
2026-04-26 14:44 52.54406 -1.84848 2310 ft 159 kts 148°
2026-04-26 14:45 52.53512 -1.83851 2044 ft 158 kts 147°
2026-04-26 14:45 52.52901 -1.83173 1918 ft 154 kts 147°
2026-04-26 14:45 52.51764 -1.81905 1667 ft 143 kts 147°
2026-04-26 14:45 52.50921 -1.80969 1481 ft 149 kts 148°
2026-04-26 14:46 52.50065 -1.80015 1255 ft 147 kts 147°
2026-04-26 14:46 52.49227 -1.79083 1038 ft 143 kts 147°
2026-04-26 14:46 52.48427 -1.78187 857 ft 135 kts 147°
2026-04-26 14:46 52.47664 -1.77339 668 ft 128 kts 147°
2026-04-26 14:47 52.46942 -1.76536 491 ft 123 kts 147°
2026-04-26 14:47 52.46241 -1.75761 351 ft 121 kts 147°
2026-04-26 14:47 52.45634 -1.75079 322 ft 64 kts 146°
2026-04-26 14:47 52.45347 -1.74759 324 ft 37 kts 145°
2026-04-26 14:48 52.45147 -1.74537 327 ft 32 kts 147°
2026-04-26 14:48 52.44985 -1.74353 329 ft 21 kts 141°
2026-04-26 14:48 52.44963 -1.74142 329 ft 20 kts 76°
2026-04-26 14:48 52.44990 -1.73964 330 ft 8 kts 76°
2026-04-26 14:49 52.44992 -1.73952 329 ft 0 kts 76°
2026-04-26 14:49 52.44995 -1.73942 327 ft 5 kts 62°
2026-04-26 14:49 52.45036 -1.73836 329 ft 15 kts 52°
2026-04-26 14:50 52.45096 -1.73770 330 ft 10 kts 330°
2026-04-26 14:50 52.45166 -1.73848 329 ft 14 kts 325°
2026-04-26 14:50 52.45236 -1.73926 327 ft 0 kts 327°
2026-04-26 14:50 52.45250 -1.73941 329 ft 4 kts 324°
2026-04-26 14:51 52.45306 -1.73975 325 ft 9 kts 21°
2026-04-26 14:51 52.45348 -1.73891 329 ft 10 kts 43°
2026-04-26 14:51 52.45398 -1.73904 327 ft 6 kts 326°
2026-04-26 14:51 52.45416 -1.73924 325 ft 0 kts 326°